Wind_Speed
18 17 18 10 3 2 7 8 16 8 10 12 7 14 17 5 2 12 19 16 20 23 21 19 18 18 19 18 19 20 19 18 18 17 16 14 15 14 13 13 12 12 12 11 11 11 11 11 11
18 18 20 8 2 1 6 17 11 11 16 12 11 7 15 18 24 21 20 21 23 25 21 17 17 18 16 15 16 18 16 15 15 14 13 12 12 11 12 11 10 10 10 10 10 10 10 10 9
15 16 11 7 11 5 11 10 16 15 8 8 8 9 12 17 23 19 26 23 24 23 21 17 17 16 15 15 16 17 15 14 13 12 10 9 9 10 10 9 9 9 9 9 9 9 9 8 7
15 12 9 6 11 10 13 15 13 11 10 8 17 15 22 24 21 27 27 21 23 20 18 18 16 15 14 14 16 15 14 13 12 10 8 8 8 8 8 8 8 8 7 8 8 9 8 7 6
19 10 13 10 10 8 11 11 11 10 11 8 21 21 18 15 26 24 25 20 22 18 18 17 15 14 14 14 15 14 13 12 10 7 7 7 6 6 6 6 6 6 6 7 8 8 8 7 5
8 4 8 13 11 9 9 7 6 11 11 7 20 18 15 19 22 22 24 21 20 19 19 16 15 15 14 14 14 14 12 10 9 8 7 5 4 4 4 4 5 5 4 5 6 7 7 7 5
12 9 1 14 10 10 9 7 7 10 11 14 18 18 15 20 20 23 24 21 19 18 20 17 15 14 13 14 15 13 10 10 9 8 6 4 3 2 2 2 3 3 3 5 6 6 6 6 5
12 5 6 10 8 14 10 8 9 9 11 17 16 13 18 21 23 21 25 22 19 23 20 18 17 15 14 13 14 11 9 9 7 7 6 5 4 1 0 2 2 4 2 2 3 3 4 4 4
14 5 3 2 15 10 12 12 8 11 12 11 2 20 23 25 24 22 20 26 18 17 17 17 19 17 15 14 12 11 9 9 7 6 6 4 7 5 4 4 6 6 3 2 2 3 4 1 2
4 8 7 8 11 15 10 12 11 12 14 13 8 25 28 26 24 23 21 22 23 17 20 20 21 16 16 15 12 11 10 9 9 8 8 5 5 3 3 4 4 3 2 2 0 4 3 4 5
13 16 25 5 4 8 13 11 12 11 12 16 15 21 23 24 22 21 21 21 20 18 19 23 19 20 16 17 12 13 12 13 10 8 8 7 3 6 4 6 5 4 2 6 4 4 5 5 7
15 11 2 5 9 7 15 13 12 8 12 16 17 20 22 20 19 21 20 21 22 23 19 18 19 17 16 14 14 13 13 11 10 10 9 7 6 7 4 5 4 4 5 4 4 1 5 7 7
11 12 7 5 9 9 14 13 11 9 7 14 19 20 22 20 22 22 20 19 20 20 19 19 19 17 15 11 13 12 10 11 10 8 9 9 9 4 5 5 6 6 7 7 6 8 5 6 9
9 9 9 5 10 10 10 16 10 13 10 15 18 20 21 21 22 22 21 21 20 20 20 19 19 18 16 15 9 10 9 9 10 9 9 8 9 3 6 8 7 6 7 8 6 6 9 7 7
14 9 9 8 11 12 12 14 14 18 13 16 17 18 20 20 24 23 23 22 21 21 20 20 19 19 17 16 14 13 13 12 12 11 9 8 8 8 8 8 7 10 5 6 7 5 5 8 10
18 16 14 14 14 11 18 16 16 17 17 16 17 17 18 20 23 24 24 23 23 22 22 21 20 20 19 18 16 16 15 12 13 10 9 10 10 10 9 11 10 7 7 8 5 8 9 10 7
17 17 20 16 16 14 16 11 18 16 17 16 16 17 18 19 21 24 25 24 24 23 22 22 20 20 20 18 17 16 15 14 10 10 11 11 10 12 11 12 8 7 8 8 6 8 6 7 9
20 22 20 18 17 12 14 3 18 16 16 16 16 17 18 20 21 25 25 25 24 24 22 22 22 20 18 17 17 13 14 12 14 14 10 9 10 11 12 11 8 8 7 8 6 4 8 9 6
23 20 15 14 25 19 18 14 13 14 16 16 18 17 19 20 20 25 26 25 25 24 24 23 23 21 20 18 16 18 19 18 15 13 9 8 10 11 9 10 12 7 10 4 6 6 7 6 2
27 23 18 14 21 21 18 19 18 18 15 16 18 19 20 20 20 23 27 27 27 27 26 25 24 23 23 20 21 20 18 16 16 15 14 12 12 11 11 10 8 7 5 2 3 4 6 5 2
26 25 19 17 25 19 15 18 18 16 19 16 17 18 21 22 22 22 24 29 29 29 28 27 27 25 24 23 21 14 11 10 6 12 11 11 11 11 10 7 8 3 3 6 3 3 2 9 2
25 25 24 20 13 12 19 16 21 19 20 20 19 19 21 22 22 22 24 28 31 31 30 27 27 26 24 24 21 20 17 17 17 14 13 11 11 11 11 9 7 6 5 2 2 3 4 2 4
25 24 24 23 18 24 24 17 13 22 20 22 20 22 21 21 23 23 24 31 31 31 30 29 28 27 26 25 24 20 21 16 11 11 6 10 9 12 11 10 8 6 6 6 2 2 3 2 5
24 24 25 24 19 17 23 18 20 16 15 14 19 22 22 22 22 23 28 31 32 32 31 30 30 28 28 26 26 21 18 20 15 14 12 12 13 12 12 12 10 8 7 6 6 5 5 5 2
28 25 16 20 18 19 22 21 22 19 16 20 16 19 23 23 21 22 24 24 31 31 31 30 30 30 29 28 26 26 22 19 16 12 15 12 13 13 16 14 12 11 10 8 6 6 5 4 4
31 29 20 26 18 19 23 22 22 17 11 7 10 11 15 22 22 24 25 26 29 32 31 31 31 31 31 29 28 26 26 24 22 20 16 17 15 14 15 17 14 12 11 10 8 8 8 7 5
30 29 28 27 24 19 20 25 23 12 19 17 17 17 12 20 23 26 25 30 30 33 34 34 31 32 31 32 28 28 27 28 26 22 24 18 18 15 16 17 16 14 14 12 11 10 9 6 7
33 24 27 22 28 26 24 23 18 21 19 19 14 17 13 18 22 23 23 28 32 35 35 34 33 32 32 31 31 30 29 28 26 23 22 23 18 18 18 18 18 17 14 13 12 10 10 9 10
21 27 24 26 24 21 20 19 20 17 17 20 22 21 15 17 19 21 23 31 34 35 35 36 35 33 33 33 31 30 30 30 29 28 26 23 21 21 18 19 17 16 16 12 10 10 8 11 12
27 28 32 18 27 21 22 19 15 16 16 13 12 12 16 15 18 19 22 26 32 34 36 36 36 37 35 34 32 33 30 30 31 31 27 26 26 22 23 22 21 19 16 14 12 11 12 13 14
Wind_Direction
172 170 182 176 161 320 76 106 142 115 90 83 89 102 119 75 84 104 140 141 138 132 130 121 122 122 125 128 130 129 129 129 125 116 107 99 92 88 86 84 85 82 78 69 64 57 55 50 50
182 196 197 258 3 263 112 71 92 121 89 103 103 57 75 88 95 116 127 137 141 134 133 126 128 126 124 130 134 133 130 127 126 121 115 103 90 87 82 82 83 77 69 60 54 50 45 45 39
209 215 249 230 125 37 95 129 97 106 111 102 97 43 73 117 117 122 130 136 144 140 138 135 133 131 128 129 137 143 138 134 135 126 115 100 93 85 83 81 78 69 62 53 41 33 27 33 30
213 220 246 359 45 66 110 100 119 125 90 60 98 88 104 101 120 131 132 139 130 136 135 143 140 139 139 138 140 145 143 142 140 130 111 103 97 87 85 81 68 60 57 44 28 17 12 18 23
245 257 242 108 90 84 102 113 148 141 107 104 111 112 110 101 120 134 131 141 139 137 141 145 146 149 150 145 140 140 140 140 146 139 126 117 100 95 95 84 57 50 43 28 14 6 3 13 18
241 285 293 104 98 108 111 154 135 96 84 110 103 129 109 126 137 136 135 147 141 147 145 147 151 153 152 149 142 138 135 142 149 148 143 137 121 113 102 65 46 44 29 7 358 356 7 14 20
232 258 250 96 118 116 121 147 165 134 126 129 138 120 130 146 140 142 141 143 145 146 137 142 145 151 151 153 151 143 142 147 149 156 165 171 167 138 67 50 26 27 16 353 351 355 5 13 23
289 197 211 69 139 115 120 171 77 131 102 125 157 136 153 141 151 146 140 143 146 163 142 149 147 149 152 156 167 160 158 161 165 177 182 189 195 172 344 6 318 338 342 359 354 345 358 10 26
273 335 283 169 82 124 145 121 141 93 133 153 128 132 144 149 151 150 151 135 152 136 157 153 153 153 155 160 172 174 179 185 192 188 195 209 226 222 207 221 288 305 277 290 348 345 3 344 8
216 342 312 55 116 172 142 136 138 156 148 140 144 118 143 157 159 159 160 153 157 156 175 155 145 158 162 164 168 177 187 193 197 200 184 239 233 274 270 260 300 324 270 215 191 18 334 291 250
248 180 249 116 47 148 143 150 147 160 165 157 150 143 154 163 167 168 166 163 163 157 187 154 167 177 171 159 170 182 188 198 201 211 227 239 265 247 249 261 239 212 295 241 232 309 294 302 337
250 252 296 338 111 244 150 150 158 175 158 149 153 154 163 169 174 174 176 171 162 168 175 170 164 175 181 170 190 189 197 206 211 206 217 253 241 251 258 340 293 313 346 294 285 127 326 308 318
229 271 275 242 167 227 153 150 151 163 143 143 144 159 171 175 177 178 180 174 168 174 176 179 175 182 188 199 195 209 205 205 219 206 211 233 248 236 278 283 289 301 295 327 298 299 320 292 305
225 237 278 267 173 180 181 149 155 151 159 145 151 168 176 181 180 179 185 177 180 180 181 181 180 184 195 202 221 223 211 225 227 231 214 205 248 269 268 245 272 274 293 315 305 319 319 316 313
265 243 211 225 158 161 207 161 196 153 163 157 165 174 178 185 184 185 187 183 186 184 184 187 192 190 197 205 207 219 229 226 234 228 226 225 234 250 259 276 269 273 273 277 280 303 278 270 259
229 234 231 158 163 145 228 170 177 155 170 168 175 178 183 189 189 188 190 192 189 191 190 195 195 194 199 207 209 219 227 231 243 229 212 218 238 244 252 256 257 270 282 259 304 289 283 278 335
222 228 232 152 178 156 228 184 167 166 182 180 179 182 187 190 196 190 194 196 195 197 193 197 201 201 197 206 213 219 227 233 238 240 246 227 223 243 247 264 271 284 277 289 268 273 281 313 308
219 223 221 171 174 188 214 164 150 169 192 189 184 186 191 193 198 194 199 195 199 193 197 200 203 208 204 206 215 231 227 229 233 238 227 229 238 240 238 254 254 260 255 258 263 340 311 311 278
235 215 232 214 166 198 197 223 156 176 202 196 185 196 193 201 196 199 198 198 197 197 198 199 203 200 205 203 204 216 221 226 227 240 225 217 223 235 233 241 231 242 253 244 332 300 290 301 21
241 246 225 206 159 194 205 204 185 178 203 209 199 197 203 201 201 198 196 201 198 198 196 196 200 200 200 205 217 218 220 220 222 241 222 229 238 222 225 236 251 230 278 213 275 292 311 273 112
230 243 240 220 155 205 229 222 204 190 189 212 214 207 204 207 204 191 199 202 201 199 200 196 197 199 201 213 206 217 239 252 237 234 225 227 222 224 227 234 243 167 243 264 148 227 292 303 348
226 230 252 234 169 231 207 247 194 209 205 197 212 216 208 205 206 197 197 204 205 203 199 202 196 201 203 205 218 202 211 218 221 225 218 190 200 213 211 215 217 220 252 179 193 245 286 261 317
230 227 233 248 211 211 203 224 231 207 199 196 209 206 216 205 205 205 196 202 208 204 202 200 196 199 206 202 212 201 220 216 218 212 173 199 193 208 207 205 204 212 220 196 245 218 227 234 287
230 238 239 234 246 236 239 216 232 189 215 197 202 200 206 212 203 203 207 201 205 207 203 200 193 198 201 203 204 219 208 227 207 204 189 200 202 198 203 200 199 207 215 200 217 222 224 257 280
222 226 230 231 222 239 230 220 231 215 193 206 225 199 196 201 205 200 201 203 200 205 201 199 193 195 198 202 203 206 218 209 228 200 210 207 204 202 193 200 199 205 201 204 219 217 228 226 242
216 220 222 224 227 224 232 233 227 223 220 208 226 249 200 190 203 204 202 202 197 200 200 199 194 195 197 200 202 202 208 213 214 215 217 211 215 204 182 190 201 206 205 206 205 213 215 212 231
220 220 228 235 232 237 227 220 245 234 224 223 235 248 210 186 202 203 199 199 198 199 198 199 197 195 197 200 199 202 204 212 214 217 209 219 214 206 192 192 197 200 204 207 203 212 215 244 227
237 219 222 229 236 230 228 236 218 206 228 243 229 241 214 198 203 203 198 197 198 199 199 198 198 196 198 200 199 203 206 209 217 214 211 215 213 216 188 195 196 194 199 204 207 206 219 233 241
220 236 221 231 236 243 243 234 223 206 205 220 227 227 219 203 202 206 197 199 196 198 198 197 199 199 198 202 201 204 206 209 211 217 211 209 213 201 204 198 200 193 186 196 220 231 259 219 235
229 226 234 228 224 241 256 248 205 206 187 227 255 260 211 200 192 208 204 198 196 198 199 197 198 201 202 202 202 203 206 207 211 214 210 206 209 207 200 195 194 191 187 187 179 259 256 239 241
Height
762 766 766 768 779 781 760 757 748 753 756 743 743 763 774 779 781 800 796 800 802 804 809 810 812 814 815 817 819 821 823 826 828 829 831 833 834 834 835 835 837 837 837 837 836 837 837 837 836
760 760 758 738 757 798 768 747 761 752 744 742 745 749 762 776 768 784 793 799 802 805 809 813 814 815 818 820 822 823 826 828 830 832 833 834 836 837 836 837 838 838 838 838 838 838 838 838 838
754 753 744 735 762 773 766 746 746 746 741 743 753 750 759 780 775 784 795 799 802 807 810 814 816 818 821 822 824 825 827 829 832 833 835 836 838 839 839 840 840 839 839 839 839 839 839 839 839
748 742 730 737 751 739 744 739 742 746 744 743 750 769 764 772 780 786 794 800 804 808 812 815 818 820 822 824 825 827 829 831 834 836 837 839 840 841 841 841 841 840 841 840 840 840 840 840 840
742 727 739 747 755 739 732 733 733 744 745 747 750 774 777 776 781 788 796 803 806 810 813 817 819 822 824 826 828 830 831 833 836 838 839 841 842 842 842 842 842 841 842 841 841 841 840 840 840
738 720 750 746 753 741 735 731 733 739 743 753 759 771 777 781 785 790 797 803 807 809 813 818 820 823 826 828 830 832 833 836 838 840 841 842 843 842 842 843 843 842 843 842 842 841 840 840 840
737 743 746 733 749 746 740 729 734 742 750 753 756 773 779 781 786 790 797 803 807 810 813 819 822 825 827 830 832 834 836 838 840 841 842 842 842 843 842 842 843 843 844 844 843 842 841 841 840
719 737 729 733 740 750 734 732 731 739 748 744 747 776 784 780 786 789 793 804 807 809 813 818 823 826 829 831 834 836 837 839 841 842 842 842 842 842 842 842 842 843 843 843 843 842 841 840 840
716 759 741 733 741 739 729 737 734 733 750 750 749 757 772 782 786 790 793 802 808 810 816 817 820 825 829 832 835 837 838 840 841 842 842 842 842 842 843 843 843 843 843 843 843 843 842 841 840
732 784 746 709 713 725 728 732 738 746 755 756 759 757 775 783 786 788 792 796 802 811 813 815 820 825 828 830 835 838 839 840 841 842 842 842 841 842 843 843 843 842 842 842 842 842 841 840 840
720 760 728 711 710 710 726 730 731 742 758 753 763 766 775 782 786 788 791 796 800 811 810 814 821 825 827 828 833 834 836 837 839 840 842 841 841 841 842 841 841 841 841 842 842 842 842 840 841
729 713 712 708 710 712 723 721 735 738 736 741 752 763 773 779 783 786 789 793 797 805 808 812 819 824 826 828 830 830 832 834 835 837 841 842 842 841 842 842 842 842 843 842 842 841 842 842 841
722 714 707 705 709 711 710 726 732 739 736 741 750 762 770 775 780 784 787 791 796 803 807 812 818 823 825 827 828 828 831 833 833 836 838 841 840 840 842 842 843 842 842 842 842 842 841 842 841
706 708 708 703 706 711 719 724 732 735 736 743 752 760 766 771 776 781 786 790 795 801 806 811 817 822 825 827 828 829 830 831 833 833 835 839 840 840 841 841 841 841 842 841 842 841 841 841 841
708 723 711 710 708 717 711 735 740 727 737 746 752 757 762 767 772 778 784 789 795 800 805 809 815 819 824 826 829 831 830 831 831 832 834 836 838 840 840 840 840 840 841 841 842 842 841 840 837
718 716 729 710 711 712 716 745 727 723 736 743 749 754 759 763 768 775 781 787 792 797 802 808 811 815 820 823 826 828 827 829 830 830 832 834 837 839 839 838 837 838 839 838 840 840 839 836 835
719 736 724 722 705 714 723 776 720 721 731 739 745 749 755 761 765 771 777 784 788 795 800 805 808 811 816 820 823 825 825 827 828 828 831 831 834 836 837 836 836 837 838 839 839 838 837 836 835
732 728 709 720 712 713 726 734 718 722 727 734 740 744 751 755 760 766 773 779 785 791 797 802 806 810 813 817 821 822 824 825 826 826 826 829 831 833 834 835 836 837 836 836 837 837 837 837 835
703 706 713 698 695 716 722 724 721 721 724 729 734 740 745 749 754 761 769 774 781 786 792 798 803 807 811 815 818 820 820 820 820 822 823 827 830 832 832 834 834 835 834 835 836 836 836 835 833
706 706 705 693 693 707 714 718 708 715 722 721 726 732 738 742 746 755 762 768 774 780 786 793 798 802 807 811 813 814 814 815 816 819 820 824 826 828 830 831 831 831 832 833 836 837 836 833 833
707 707 700 702 696 704 709 725 713 704 708 715 715 717 724 731 738 745 755 762 767 773 780 786 792 797 802 806 809 812 813 812 814 815 818 820 824 825 827 829 830 830 832 832 835 836 836 833 833
716 694 692 694 719 739 705 742 712 704 707 708 712 713 715 721 727 734 746 754 759 766 774 781 786 792 797 802 804 807 809 810 810 811 812 815 819 822 824 826 828 830 831 832 834 835 836 836 832
704 685 694 693 701 722 709 728 705 693 703 701 701 703 706 709 717 725 734 745 753 759 767 774 781 787 791 796 799 803 806 804 806 808 811 815 817 820 822 825 827 830 831 832 833 834 835 834 834
685 693 692 693 698 728 707 716 712 714 692 687 683 688 696 701 707 716 726 735 745 752 759 766 774 780 786 790 794 797 799 801 803 807 810 813 815 818 820 823 825 828 830 832 833 835 835 835 835
693 704 730 732 726 730 690 705 714 672 670 677 678 675 679 689 698 706 716 724 734 743 751 759 766 772 779 784 788 793 796 800 801 803 807 808 810 813 816 821 824 826 828 830 833 834 835 836 835
692 692 713 745 728 716 687 707 688 658 657 660 662 663 665 677 687 695 704 714 724 735 744 751 757 765 772 777 782 788 793 796 799 801 802 805 806 809 812 817 821 825 827 828 830 832 833 833 836
684 693 673 698 687 704 689 679 662 655 660 662 665 663 664 668 678 685 694 705 715 725 733 741 750 758 764 770 776 782 786 790 791 795 798 800 803 805 809 812 817 820 822 825 827 828 831 832 833
671 662 696 679 716 719 694 687 688 672 676 668 667 665 661 661 669 676 686 697 708 718 727 736 743 750 757 764 769 774 779 783 787 790 792 795 800 804 806 810 811 814 819 823 826 826 828 831 831
678 673 667 673 680 702 709 684 643 656 660 665 661 654 653 655 662 669 677 688 699 709 718 726 734 742 749 755 761 766 771 776 781 783 786 791 795 796 802 806 810 813 814 820 828 826 826 826 829
656 666 664 676 696 679 677 673 624 635 644 651 650 645 642 644 652 661 667 679 689 699 707 715 725 732 739 746 753 758 764 769 772 775 781 785 789 793 796 800 804 809 814 816 814 829 826 824 825